Location: Ajisawe
(8.4333°N, 4.3833°E)
Time: 22:23:54
(UTC+00:00)

Vanguard 2 Rocket - Pass Details

Date: 23 April 2021
Orbit: 554 x 3326 km, 32.9° (Epoch: 16 May)

Event Time Altitude Azimuth Distance (km) Brightness Sun altitude
Rises 18:26:49 0° 306° (NW) 7,247 13.0 -9.2°
Reaches altitude 10° 18:32:07 10° 309° (NW) 6,065 12.2 -10.5°
Maximum altitude 18:50:03 66° 29° (NNE) 2,455 8.9 -14.8°
Enters shadow 18:58:14 22° 106° (ESE) 3,207 9.0 -16.7°
Drops below altitude 10° 19:00:35 10° 110° (ESE) 3,778 - -17.3°
Sets 19:03:04 0° 113° (ESE) 4,469 - -17.9°
